星链-1544 (STARLINK-1544 )

导读 | 星芒AI

STARLINK-1544 是 SpaceX Starlink 项目中的一颗低轨通信卫星,属于第54组星链卫星。该卫星于2022年发射,运行在约550公里高度的近地轨道,旨在为全球提供高速互联网服务。它采用先进的相控阵天线和激光通信技术,提升网络连接的稳定性和速度。作为 Starlink 卫星群的一部分,STARLINK-1544 支持偏远地区的宽带接入,助力实现全球互联网覆盖目标。

基本信息
目录编号:
46031
目录名称:
STARLINK-1544
国际标识:
2020-055E
轨道中心:
EARTH
卫星名称:
星链-1544
卫星全名:
星链-1544 (STARLINK-1544 )
卫星状态:
已陨落 最后检测时间 2024-12-27
发射日期:
2020-08-07 UTC
国别 :
美国 (US)
星等 :
--
轨道信息
数据来源 国际轨道数据
星历时间: 2024-12-27T12:53:50+0800
轨道信息已过期353天
半长轴: 6523.075km
偏心率: 0.001101
轨道倾角: 53.023°
近地点辐角 178.072°
升交点赤经 272.827°
平近点角 299.832°
近地点: 137.758km
远地点: 152.122km
周期: 87.385分钟
每日圈数: 16.47875
详细信息
固有亮度:
5
最大亮度:
2.5
卫星平台:
Starlink V1.0
覆盖范围:
全球
运营商:
太空探索技术公司
运营商所在国:
美国
制造商(研发单位):
太空探索技术公司
制造商所在国:
美国
使用方式:
暂无
卫星简介
星链(Starlink)计划是由太空探索技术公司(SpaceX)提出的一个巨型低轨卫星互联网星座项目,计划在2019年至2024年间在太空搭建由约1.2万颗卫星组成的“星链”网络,其中1584颗将部署在地球上空550千米处的近地轨道,并从2020年开始工作。该卫星仍在工作。